ONEWEB-0131 (47277 NORAD) Tracking and Keplerian Element Data

This shows tracking and keplerian element data for the satellite.

Feedback or suggestion? Click here.




ElementValue
Catalog47277
NameONEWEB-0131
Epoch Orbit172
Epoch Day62.91667824
Epoch Year2021
RAAN15.6218
Inclination87.6345
Eccentricity0.0008589
Argument of Perigee22.908
Mean Anonmoly77.6116
Mean Motion13.97255825
Decay Rate-0.00025738
L11 47277U 20100V 21062.91667824 -.00025738 00000-0 -18464-1 0 9995
L22 47277 87.6345 15.6218 0008589 22.9080 77.6116 13.97255825 1721

Live tracking and technical data element details for ONEWEB-0131 (NORAD 47277). ONEWEB-0131 can be tracked NOW for your location showing map with azimuth and elevation plus other details from your city location.

Track the satellite on the map from your city or location and see movement details for azimuth, elevation, latitude, longitude, range, height, and movement on the map or in text.







IsCatalogInMostPopularTable: catalog: 47277, numindb: 27
Update: records affected: 1



GetName: 47277 ONEWEB-0131

Hit Count: updated at: Fri, 05 Mar 2021 06:30:42 GMT